map of SSI home
SSI - Airport
Location
City:  Brunswick, Georgia, United States
Name:McKinnon St. Simons Island Airport
ICAO:KSSI
IATA:SSI
FAA LID:SSI

Details
Type:Airport (Airfield)
Use:Public/Civil, International (customs landing rights)
Latitude:3109'07"N (31.151972)
Longitude:8123'28"W (-81.391055)
Datum:WGS 1984
Elevation:18 ft (5 m)
Variation:6.74W (WMM2015 magnetic declination)
-0.08 annual change
Runways:2
Longest:5584 × 100 ft (1702 × 30.5 m), paved

Time
Time Zone:UTC-5 (DST-4)
Local Time:

Weather
METAR:KSSI 210553Z AUTO 06007KT 10SM CLR 23/19 A3018 RMK AO2 SLP219 T02330194 10233 20228 58001
TAF:KSSI 210520Z 2106/2206 06007KT P6SM SKC
FM211400 06013KT P6SM SCT035 BKN250
FM212300 05007KT P6SM BKN035

Related Locations
Nearby:
Farthest:USL: 11483 mi / 18480 km
Useless Loop, WA, AU

Find:

   beyond  
but within

Other Information
Maps:
NOTAMs:
Links:
Sources:

  
flag of United States
flag of Georgia
  

Sectional Chart

Flight Planning
at skyvector.com

Satellite Image

Google Maps Satellite view

 

Copyright © 2004-2017 Karl L. Swartz. All rights reserved.
The Great Circle Mapper name and logo are trademarks of the Great Circle Mapper.
All other trademarks mentioned herein belong to their respective owners.
Please see credits for attibutions and further copyright information.

  Follow gcmap on Facebook Follow gcmap on Twitter Follow gcmap on Google+ GCmap on LinkedIn

hCard Microformat

Geo Microformat